Content
SEND FEEDBACK

Daily
Averages
Monthly
Summary
France

MIRECOURT, FRANCE


Home > Europe > France
Elevation: 1083 feet     Latitude: 48 19N     Longitude: 006 04E

WEATHER
 
SELECT A DAY
Number of Records: 208,770;   Date Range: 7/1/96 - 10/21/14
 
SHARE

PRINT THIS DATA

[ ← Previous Day ]
WEATHER ALMANAC - JANUARY 31, 2013
[ Next Day → ]
[ °C ]   °F
Weather ElementAverageHighLow
Temperature43.8 °F48.2 °F (12:30 pm)39 °F (7:00 am)
Dewpoint39.3 °F44.6 °F (7:00 pm)35.6 °F (1:30 am)
Humidity83.8 %93 % (6:30 am)60 % (1:00 pm)
Barometer30.15 in30.27 in (1:00 am)30.06 in (3:00 pm)
Wind Speed16.4 mph28.8 mph (2:30 pm)
Wind Gust39.1 mph (1:00 pm)
Weather ElementAverage
Visibility7.8 mi
Wind DirectionSW (228.2 °)

Weather ElementTotal
Precipitation---
Heating Degree Days21.4 (Base 65)
Averaged from 51 records on January 31, 2013
WEATHER CONDITIONS BREAKOUT
WIND DIRECTION BREAKOUT
WEATHER BY HOUR - JANUARY 31, 2013
[ °C ]   °F
Local TimeTemperatureDewpointHumidityBarometerVisibilityWind DirectionWind SpeedGust SpeedPrecipitationEventsConditions
12:30 AM42.8 °F37.4 °F81 %30.21 in6.2 miSW (230°)11.5 mph
1:00 AM42.0 °F37.0 °F76 %30.27 in37.0 miSW (230°)15.0 mphClear
1:00 AM42.8 °F37.4 °F81 %30.21 in6.2 miSW (230°)15.0 mph
1:30 AM41.0 °F35.6 °F81 %30.21 in6.2 miSW (230°)13.8 mph
2:00 AM41.0 °F35.6 °F81 %30.21 in6.2 miSW (230°)15.0 mph
2:30 AM41.0 °F37.4 °F87 %30.24 in6.2 miSW (230°)11.5 mph
3:00 AM39.2 °F35.6 °F87 %30.24 in6.2 miSW (220°)13.8 mphPartly Cloudy
3:30 AM39.2 °F35.6 °F87 %30.24 in6.2 miWSW (240°)13.8 mph
4:00 AM41.0 °F35.6 °F81 %30.24 in6.2 miWSW (240°)13.8 mph
4:30 AM39.2 °F35.6 °F87 %30.24 in6.2 miSW (230°)15.0 mph
5:00 AM39.2 °F35.6 °F87 %30.21 in6.2 miSW (230°)17.3 mph
5:30 AM39.2 °F35.6 °F87 %30.21 in6.2 miSW (230°)11.5 mph
6:00 AM39.2 °F35.6 °F87 %30.21 in6.2 miSW (220°)13.8 mph
6:30 AM39.2 °F37.4 °F93 %30.21 in6.2 miSSW (210°)15.0 mph
7:00 AM39.0 °F37.0 °F92 %30.27 in28.0 miSSW (210°)15.0 mphClear
7:00 AM39.2 °F37.4 °F93 %30.21 in6.2 miSSW (210°)15.0 mphMostly Cloudy
7:30 AM41.0 °F39.2 °F93 %30.21 in6.2 miSSW (210°)12.7 mphOvercast
8:00 AM41.0 °F39.2 °F93 %30.21 in6.2 miSSW (200°)15.0 mphMostly Cloudy
8:30 AM41.0 °F39.2 °F93 %30.21 in6.2 miSSW (210°)13.8 mphMostly Cloudy
9:00 AM42.8 °F39.2 °F87 %30.18 in6.2 miSSW (210°)17.3 mphScattered Clouds
9:30 AM42.8 °F39.2 °F87 %30.18 in6.2 miSSW (210°)18.4 mph
10:00 AM42.8 °F39.2 °F87 %30.18 in6.2 miSSW (210°)16.1 mph27.6 mphOvercast
10:30 AM42.8 °F39.2 °F87 %30.18 in6.2 miSSW (210°)16.1 mphOvercast
11:00 AM44.6 °F39.2 °F81 %30.15 in6.2 miSSW (210°)15.0 mphMostly Cloudy
11:30 AM46.4 °F39.2 °F76 %30.15 in6.2 miSSW (210°)19.6 mphPartly Cloudy
12:00 PM46.4 °F39.2 °F76 %30.15 in6.2 miSSW (210°)23.0 mph
12:30 PM48.2 °F37.4 °F66 %30.15 in6.2 miWSW (240°)20.7 mph32.2 mphPartly Cloudy
1:00 PM47.0 °F38.0 °F60 %30.18 in34.0 miWSW (240°)26.5 mphClear
1:00 PM46.4 °F37.4 °F71 %30.15 in6.2 miWSW (240°)26.5 mph39.1 mphMostly Cloudy
1:30 PM46.4 °F39.2 °F76 %30.12 in6.2 miWSW (240°)21.9 mphOvercast
2:00 PM48.2 °F39.2 °F71 %30.09 in6.2 miSW (230°)25.3 mphMostly Cloudy
2:30 PM46.4 °F39.2 °F76 %30.09 in6.2 miSW (230°)28.8 mphOvercast
3:00 PM46.4 °F39.2 °F76 %30.06 in6.2 miSW (230°)24.2 mphOvercast
3:30 PM46.4 °F39.2 °F76 %30.09 in6.2 miSW (220°)24.2 mphOvercast
4:00 PM46.4 °F39.2 °F76 %30.06 in6.2 miSW (230°)21.9 mphOvercast
4:30 PM46.4 °F41.0 °F81 %30.06 in6.2 miSW (220°)20.7 mphRainLight Rain
5:00 PM46.4 °F41.0 °F81 %30.06 in6.2 miSW (230°)19.6 mphOvercast
5:30 PM44.6 °F42.8 °F93 %30.06 in6.2 miSW (220°)17.3 mphRainLight Rain
6:00 PM44.6 °F42.8 °F93 %30.06 in4.3 miSW (230°)15.0 mphRainLight Rain
6:30 PM44.6 °F42.8 °F93 %30.06 inSW (220°)11.5 mphRainLight Rain
7:00 PM46.0 °F44.0 °F89 %30.11 in6.0 miWSW (250°)18.4 mphRainLight Rain
7:00 PM46.4 °F44.6 °F93 %30.06 in5.6 miWSW (250°)18.4 mphRainLight Rain
7:30 PM46.4 °F42.8 °F87 %30.09 in6.2 miWest (260°)12.7 mph26.5 mphOvercast
8:00 PM46.4 °F42.8 °F87 %30.09 in6.2 miWest (260°)12.7 mphOvercast
8:30 PM46.4 °F42.8 °F87 %30.09 in6.2 miWSW (250°)12.7 mphOvercast
9:00 PM46.4 °F42.8 °F87 %30.09 in6.2 miWSW (250°)13.8 mphOvercast
9:30 PM46.4 °F42.8 °F87 %30.09 in6.2 miWSW (250°)10.4 mphOvercast
10:00 PM46.4 °F42.8 °F87 %30.09 in6.2 miSW (230°)9.2 mphOvercast
10:30 PM46.4 °F42.8 °F87 %30.09 in6.2 miWSW (240°)10.4 mphMostly Cloudy
11:00 PM44.6 °F41.0 °F87 %30.09 in6.2 miSW (230°)11.5 mphOvercast
11:30 PM46.4 °F41.0 °F81 %30.09 in6.2 miWSW (240°)11.5 mphOvercast
Hourly data recorded from LFSO, located miles away from Mirecourt, France







STORIES FROM OUR PARTNERS